[[{"header":{"parameterUnit":"m.s-1","parameterCategory":1,"la1":30.2991,"la2":30.254,"lo1":-89.0895,"lo2":-89.0444,"dy":0.0017,"dx":0.0017,"nx":28,"ny":28,"refTime":"2024-06-08T03:00:00:Z","depth":0,"parameterNumber":2,"parameterNumberName":"U-component_of_WINDS"},"data":[0,0,0,0,0,0,0,0,0,0,0,0,0,0,0,0,0,0,0,0,0,0,0,0,0,0,0,0,0,0,0,0,0,0,0,0,0,0,0,0,0,0,0,0,0,0,0,0,0,0,0,0,0,0,0,0,0,0,-1.8135,-1.8134,0,-1.8082,-1.8081,-1.808,-1.7962,-1.7959,-1.7957,-1.7955,-1.7903,-1.7904,-1.7904,0,0,0,0,0,0,0,0,0,0,0,0,0,-1.8138,-1.8139,-1.8135,-1.8134,-1.8134,-1.8082,-1.8081,-1.808,-1.7962,-1.7959,-1.7956,-1.7954,-1.7902,-1.7903,-1.7905,0,0,0,0,0,0,0,0,0,0,0,0,0,-1.8116,-1.8139,-1.8135,-1.8068,-1.8062,-1.8082,-1.8081,-1.808,-1.7963,-1.7959,-1.7956,-1.7952,-1.7902,-1.7903,-1.7905,-1.7986,0,0,-1.7909,-1.7909,0,0,0,0,0,0,0,0,-1.8118,-1.8116,-1.8079,-1.8073,-1.8066,-1.8025,-1.8063,-1.8049,-1.7964,-1.8001,-1.7955,-1.795,-1.7946,-1.7944,-1.7942,-1.7983,-1.7981,-1.7909,-1.791,-1.791,-1.7911,0,0,0,0,0,0,0,-1.8119,-1.8118,-1.8114,-1.8078,-1.807,-1.8043,-1.8035,-1.806,-1.7995,-1.7997,-1.7988,-1.7984,-1.7942,-1.7941,-1.794,-1.798,-1.7909,-1.791,-1.7911,-1.7911,-1.8087,-1.8091,0,0,0,0,0,0,-1.813,-1.812,-1.8115,-1.8112,-1.8083,-1.8045,-1.8037,-1.8042,-1.7994,-1.7983,-1.7987,-1.7978,-1.794,-1.7938,-1.7938,-1.8029,-1.791,-1.7911,-1.7912,-1.8084,-1.8088,-1.8092,0,0,0,0,0,0,-1.8131,-1.8131,-1.8118,-1.8114,-1.811,-1.8049,-1.8055,-1.8042,-1.8041,-1.7986,-1.7974,-1.7997,-1.7938,-1.7936,-1.7975,-1.8026,-1.7912,-1.7913,-1.8079,-1.8085,-1.809,-1.8214,0,0,0,0,0,0,-1.8131,-1.8132,-1.8161,-1.8115,-1.8111,-1.8155,-1.8058,-1.8044,-1.8043,-1.8032,-1.7993,-1.7983,-1.7935,-1.7974,-1.7976,-1.8026,-1.7914,-1.8074,-1.8082,-1.8089,-1.8205,-1.8223,-1.8239,0,0,0,0,0,-1.8132,-1.8198,-1.8163,-1.8163,-1.8145,-1.8158,-1.8155,-1.8097,-1.8048,-1.8077,-1.8043,-1.7984,-1.8021,-1.7979,-1.798,-1.8031,-1.8071,-1.808,-1.8088,-1.8197,-1.822,-1.8239,0,0,0,0,0,0,-1.8251,-1.819,-1.8151,-1.8204,-1.8187,-1.8138,-1.8172,-1.8123,-1.812,-1.8109,-1.8039,-1.8031,-1.808,-1.806,-1.8014,-1.8108,-1.8036,-1.8046,-1.8119,-1.814,-1.8156,-1.8159,-1.7915,0,0,0,0,0,-1.8283,-1.8297,-1.8245,-1.8297,-1.829,-1.8234,-1.8237,-1.8194,-1.8174,-1.8166,-1.8134,-1.8118,-1.8125,-1.8132,-1.8136,-1.8203,-1.8193,-1.8239,-1.8256,-1.827,-1.8278,-1.8313,-1.8333,-1.8121,-1.8121,-1.8121,0,0,-1.835,-1.8319,-1.8332,-1.832,-1.8301,-1.8319,-1.8228,-1.825,-1.8262,-1.817,-1.8204,-1.8181,-1.8158,-1.8212,-1.8234,-1.8196,-1.8336,-1.8281,-1.8293,-1.8293,-1.8324,-1.8344,-1.8362,-1.8127,-1.8126,-1.8125,0,0,-1.848,-1.8459,-1.8499,-1.8484,-1.8457,-1.842,-1.843,-1.8389,-1.837,-1.8404,-1.8335,-1.835,-1.8365,-1.8351,-1.8347,-1.8477,-1.8423,-1.848,-1.8568,-1.8602,-1.8619,-1.8633,-1.8679,-1.8697,-1.8489,-1.849,-1.849,0,-1.8567,-1.8589,-1.8527,-1.8554,-1.8551,-1.8469,-1.851,-1.8498,-1.8476,-1.8476,-1.8435,-1.8452,-1.8431,-1.8481,-1.8513,-1.8512,-1.8522,-1.8482,-1.8622,-1.8635,-1.8648,-1.8691,-1.8708,-1.8497,-1.8496,-1.8495,-1.8494,0,-1.8696,-1.8713,-1.875,-1.8729,-1.8731,-1.8766,-1.871,-1.872,-1.8679,-1.8646,-1.8683,-1.8655,-1.8653,-1.8662,-1.8622,-1.8707,-1.8685,-1.8634,-1.856,-1.8676,-1.8715,-1.8731,-1.8507,-1.8504,-1.8502,-1.85,0,0,-1.8896,-1.8843,-1.8858,-1.8848,-1.8815,-1.8827,-1.886,-1.8856,-1.8866,-1.8855,-1.888,-1.8896,-1.8849,-1.8844,-1.8802,-1.8833,-1.8938,-1.8778,-1.8777,-1.8808,-1.903,-1.9067,-1.9087,-1.8904,-1.8907,-1.8909,-1.9032,0,-1.9017,-1.9066,-1.9013,-1.9074,-1.909,-1.9014,-1.9042,-1.9026,-1.8998,-1.9008,-1.8977,-1.8989,-1.8927,-1.8924,-1.8951,-1.8919,-1.8981,-1.891,-1.8926,-1.8928,-1.8932,-1.9107,-1.9146,-1.9263,-1.9047,-1.9049,-1.9051,0,-1.9163,-1.9158,-1.9221,-1.9185,-1.919,-1.9216,-1.921,-1.9221,-1.9202,-1.9179,-1.9176,-1.9126,-1.9156,-1.9087,-1.9128,-1.9081,-1.9086,-1.9072,-1.9075,-1.9072,-1.8995,-1.9108,-1.9299,-1.9316,-1.9075,-1.9073,-1.9071,0,-1.9301,-1.9311,-1.9349,-1.9344,-1.9304,-1.9324,-1.9308,-1.9286,-1.9288,-1.9285,-1.9286,-1.9286,-1.9286,-1.9288,-1.9241,-1.9194,-1.9289,-1.9215,-1.9271,-1.9272,-1.9291,-1.929,-1.9484,-1.9298,-1.9298,-1.9298,-1.9297,0,-1.944,-1.9481,-1.9411,-1.9434,-1.9479,-1.942,-1.9466,-1.9443,-1.9425,-1.9443,-1.938,-1.9399,-1.9336,-1.9349,-1.9313,-1.9353,-1.9354,-1.9337,-1.9326,-1.9341,-1.9343,-1.9341,-1.9331,-1.9302,-1.9301,-1.93,-1.93,0,-1.96,-1.9555,-1.9592,-1.9552,-1.9543,-1.9578,-1.9544,-1.9565,-1.9534,-1.9559,-1.9562,-1.9513,-1.9526,-1.948,-1.9485,-1.9461,-1.952,-1.9497,-1.9526,-1.9518,-1.9576,-1.9571,-1.9773,-1.9797,-1.9598,-1.96,-1.9602,0,-1.969,-1.972,-1.9684,-1.9692,-1.968,-1.9693,-1.9696,-1.964,-1.9646,-1.9628,-1.9652,-1.966,-1.9662,-1.9687,-1.9653,-1.9657,-1.9633,-1.9704,-1.9633,-1.9648,-1.9633,-1.963,-1.9633,-1.9718,-1.972,-1.9722,-1.9724,0,-1.9855,-1.9832,-1.9837,-1.9836,-1.9841,-1.9838,-1.983,-1.984,-1.9781,-1.9791,-1.9803,-1.9806,-1.9812,-1.982,-1.9818,-1.9803,-1.9754,-1.9747,-1.976,-1.9774,-1.9789,-1.9781,-1.9564,-1.9742,-1.974,-1.9739,-1.9738,-1.9737,-1.9981,-2.0005,-1.9983,-1.9992,-1.9981,-1.9976,-1.9994,-1.9966,-1.9975,-1.9975,-1.9943,-1.9962,-1.9945,-1.9937,-1.9928,-1.9943,-1.991,-1.9929,-1.9934,-1.9939,-1.9948,-1.9789,-1.9943,-1.9942,-1.9942,-1.9941,-1.9941,0,-2.0142,-2.0125,-2.0134,-2.0125,-2.0133,-2.0088,-2.0078,-2.0087,-2.0105,-2.0093,-2.0098,-2.0113,-2.0122,-2.009,-2.0095,-2.0114,-2.0091,-2.0117,-2.0113,-2.0111,-1.9978,-1.9965,-2.0135,-2.0135,-2.0135,-2.0135,-2.0135,-2.0134,-2.0226,-2.0263,-2.0238,-2.027,-2.0253,-2.0271,-2.0269,-2.0265,-2.0255,-2.0275,-2.0282,-2.0262,-2.0243,-2.0246,-2.0253,-2.0244,-2.0248,-2.0281,-2.0264,-2.0139,-2.012,-2.0102,-2.009,-2.0283,-2.0283,-2.0395,-2.0396,-2.0397]},{"header":{"parameterUnit":"m.s-1","parameterCategory":1,"la1":30.2991,"la2":30.254,"lo1":-89.0895,"lo2":-89.0444,"dy":0.0017,"dx":0.0017,"nx":28,"ny":28,"refTime":"2024-06-08T03:00:00:Z","depth":0,"parameterNumber":3,"parameterNumberName":"V-component_of_WINDS"},"data":[0,0,0,0,0,0,0,0,0,0,0,0,0,0,0,0,0,0,0,0,0,0,0,0,0,0,0,0,0,0,0,0,0,0,0,0,0,0,0,0,0,0,0,0,0,0,0,0,0,0,0,0,0,0,0,0,0,0,2.6147,2.6147,0,2.6139,2.6138,2.6138,2.6172,2.6173,2.6174,2.6174,2.6161,2.616,2.6159,0,0,0,0,0,0,0,0,0,0,0,0,0,2.6187,2.6186,2.6147,2.6147,2.6146,2.6139,2.6138,2.6138,2.6171,2.6173,2.6174,2.6175,2.6162,2.616,2.6159,0,0,0,0,0,0,0,0,0,0,0,0,0,2.6173,2.6186,2.6147,2.6162,2.6163,2.6139,2.6138,2.6138,2.6171,2.6173,2.6174,2.6176,2.6162,2.616,2.6158,2.6117,0,0,2.6153,2.6152,0,0,0,0,0,0,0,0,2.6174,2.6172,2.616,2.6161,2.6162,2.6158,2.6148,2.6131,2.6171,2.6168,2.6175,2.6176,2.6159,2.6157,2.6152,2.6116,2.6116,2.6152,2.6151,2.615,2.615,0,0,0,0,0,0,0,2.6175,2.6172,2.6143,2.616,2.6161,2.6168,2.6168,2.6145,2.6155,2.6168,2.6171,2.617,2.6159,2.6154,2.6152,2.6115,2.6152,2.6151,2.615,2.6149,2.6045,2.6044,0,0,0,0,0,0,2.6174,2.6173,2.6144,2.6143,2.6172,2.6166,2.6166,2.6158,2.6155,2.6156,2.6168,2.6171,2.6156,2.6154,2.6152,2.6103,2.615,2.6149,2.6147,2.6047,2.6045,2.6043,0,0,0,0,0,0,2.6175,2.6171,2.6144,2.6159,2.6156,2.6164,2.6154,2.6157,2.6151,2.6155,2.6157,2.6161,2.6157,2.6154,2.6126,2.6103,2.6148,2.6146,2.6049,2.6046,2.6044,2.6004,0,0,0,0,0,0,2.6176,2.6172,2.6156,2.6158,2.6155,2.6119,2.6153,2.6155,2.6148,2.6152,2.6149,2.615,2.6158,2.6128,2.6124,2.6101,2.6144,2.6051,2.6048,2.6045,2.6007,2.6001,2.5995,0,0,0,0,0,2.6178,2.6144,2.6156,2.6152,2.6136,2.6118,2.6115,2.6128,2.6146,2.6131,2.6134,2.615,2.6106,2.6125,2.612,2.6096,2.6052,2.6049,2.6045,2.601,2.6002,2.5995,0,0,0,0,0,0,2.6138,2.6145,2.6157,2.6124,2.612,2.6123,2.6104,2.6118,2.6108,2.6111,2.6126,2.6125,2.6093,2.6092,2.6113,2.6056,2.6082,2.6078,2.6058,2.605,2.6044,2.6044,2.6143,0,0,0,0,0,2.6126,2.6111,2.6118,2.6087,2.6085,2.6095,2.6087,2.6097,2.6093,2.6091,2.6092,2.6086,2.6071,2.6061,2.6047,2.6008,2.6008,2.599,2.5983,2.5978,2.5973,2.5952,2.5944,2.6031,2.6031,2.6031,0,0,2.6099,2.6101,2.6091,2.608,2.6078,2.6061,2.6093,2.6074,2.6061,2.6087,2.6061,2.6061,2.6056,2.6022,2.6007,2.602,2.5949,2.5973,2.5969,2.5967,2.5948,2.594,2.5932,2.6029,2.6029,2.603,0,0,2.6042,2.6043,2.6018,2.6016,2.6014,2.6021,2.6015,2.6017,2.6019,2.5993,2.6012,2.5997,2.5971,2.5966,2.596,2.5904,2.5918,2.59,2.5865,2.5845,2.5838,2.5832,2.5811,2.5804,2.5895,2.5895,2.5895,0,2.6009,2.5986,2.6003,2.5983,2.5977,2.6003,2.5977,2.5974,2.5967,2.5962,2.5977,2.5946,2.5944,2.5909,2.5896,2.5891,2.5884,2.5899,2.5838,2.5832,2.5827,2.5807,2.5799,2.5893,2.5893,2.5893,2.5893,0,2.5946,2.593,2.591,2.5904,2.5896,2.5873,2.5886,2.5876,2.5887,2.5892,2.5865,2.5864,2.5851,2.5844,2.5854,2.5811,2.5819,2.5836,2.5862,2.5816,2.5798,2.579,2.5889,2.589,2.5891,2.5891,0,0,2.5861,2.5867,2.5859,2.5857,2.5858,2.5845,2.5823,2.5813,2.5803,2.5798,2.5779,2.5758,2.5774,2.5768,2.5778,2.576,2.5715,2.578,2.578,2.5767,2.5667,2.5653,2.5644,2.5725,2.5724,2.5723,2.5667,0,2.5805,2.577,2.5785,2.5747,2.5733,2.5758,2.5739,2.5736,2.5741,2.5728,2.5733,2.5717,2.574,2.5737,2.5721,2.5724,2.5695,2.5728,2.5707,2.5706,2.5706,2.5634,2.5619,2.5566,2.566,2.5659,2.5658,0,2.5734,2.5728,2.569,2.5694,2.5688,2.5671,2.5662,2.565,2.5648,2.5653,2.5647,2.5661,2.5639,2.5667,2.5637,2.5659,2.5651,2.5652,2.565,2.5647,2.5678,2.5628,2.555,2.5541,2.5647,2.5648,2.5648,0,2.5675,2.5657,2.5632,2.563,2.5634,2.5622,2.5622,2.5622,2.5615,2.5607,2.5603,2.5592,2.5586,2.5577,2.5588,2.5607,2.5555,2.5584,2.5557,2.5557,2.5543,2.5544,2.5461,2.5541,2.5541,2.5541,2.5541,0,2.561,2.5585,2.5606,2.559,2.5563,2.5581,2.5554,2.5557,2.5557,2.5541,2.5562,2.5547,2.5563,2.5549,2.5557,2.5531,2.5528,2.553,2.5532,2.5527,2.5527,2.5521,2.5524,2.5539,2.554,2.554,2.554,0,2.5539,2.5552,2.5526,2.5533,2.5534,2.5514,2.5519,2.5505,2.5512,2.5492,2.5489,2.5499,2.5484,2.5495,2.5479,2.5485,2.5449,2.5457,2.545,2.5452,2.5424,2.5426,2.5334,2.5322,2.541,2.5409,2.5409,0,2.5496,2.5478,2.5483,2.5476,2.5476,2.5462,2.5456,2.5473,2.5465,2.5462,2.5447,2.5435,2.5425,2.54,2.5405,2.5393,2.54,2.5369,2.5398,2.5394,2.5398,2.5399,2.5397,2.5362,2.5361,2.536,2.5359,0,2.5417,2.5425,2.5416,2.5409,2.5401,2.5396,2.5392,2.5384,2.5402,2.5392,2.5377,2.537,2.5356,2.5342,2.5333,2.5333,2.5348,2.5351,2.5344,2.5337,2.5334,2.5335,2.5432,2.5352,2.5353,2.5353,2.5354,2.5354,2.5358,2.5343,2.5345,2.5334,2.5334,2.533,2.5317,2.5324,2.5313,2.5303,2.5314,2.5297,2.5295,2.5285,2.5283,2.5269,2.5281,2.5271,2.5268,2.5265,2.5261,2.5338,2.5267,2.5267,2.5268,2.5268,2.5268,0,2.528,2.5283,2.5273,2.5268,2.5259,2.5278,2.5275,2.5266,2.5251,2.525,2.5241,2.5224,2.5212,2.5217,2.5206,2.5194,2.5201,2.519,2.519,2.519,2.5251,2.5258,2.5185,2.5185,2.5185,2.5185,2.5185,2.5185,2.5238,2.5214,2.5222,2.5198,2.5202,2.5186,2.5183,2.5179,2.5179,2.516,2.5151,2.5155,2.5156,2.5146,2.5135,2.5137,2.5131,2.5117,2.5121,2.5178,2.5186,2.5193,2.52,2.5116,2.5116,2.5062,2.5061,2.5061]}]]